Overview Statistics Trail Chart Weather Telemetry Raw packets
 

This is the latest recevied weather packets stored in our database for station/object KK7MLS-13. If no packets are shown the sender has not sent any weather packets the latest 10 day(s).

<< 3 4 5 6 7 8 9 >>
Time Temp. Humidity Pressure Rain* Wind** Luminosity Snow
1788653246 20.56° C 58% 1016 hPa 0 mm - 70 W/m² -
1788652941 20.56° C 57% 1016 hPa 0 mm - 79 W/m² -
1788652641 21.11° C 58% 1015.9 hPa 0 mm - 41 W/m² -
1788652335 21.11° C 56% 1016 hPa 0 mm - 48 W/m² -
1788652031 21.67° C 54% 1016 hPa 0 mm - 44 W/m² -
1788651726 22.22° C 52% 1016 hPa 0 mm - 67 W/m² -
1788651421 22.78° C 49% 1015.9 hPa 0 mm - 71 W/m² -
1788651121 22.78° C 52% 1016 hPa 0 mm - 75 W/m² -
1788650816 23.33° C 51% 1016.1 hPa 0 mm - 102 W/m² -
1788650511 22.22° C 54% 1015.9 hPa 0 mm - 123 W/m² -
1788650207 21.67° C 57% 1016.2 hPa 0 mm - 103 W/m² -
1788649903 21.11° C 54% 1015.9 hPa 0 mm - 77 W/m² -
1788649599 21.67° C 53% 1016 hPa 0 mm - 98 W/m² -
1788649297 20.56° C 57% 1016.1 hPa 0 mm - 460 W/m² -
1788648997 20.56° C 56% 1016.3 hPa 0 mm - 119 W/m² -
1788648697 20.56° C 56% 1016.1 hPa 0 mm - 141 W/m² -
1788648396 20.56° C 56% 1016.2 hPa 0 mm - 125 W/m² -
1788648096 21.11° C 56% 1016.3 hPa 0 mm - 107 W/m² -
1788647793 21.11° C 56% 1016.3 hPa 0 mm - 89 W/m² -
1788647489 21.11° C 58% 1016.3 hPa 0 mm - 107 W/m² -
1788647185 20.56° C 58% 1016.3 hPa 0 mm - 219 W/m² -
1788646879 21.67° C 54% 1016.4 hPa 0 mm - 107 W/m² -
1788646575 22.22° C 55% 1016.3 hPa 0 mm - 123 W/m² -
1788646272 22.78° C 51% 1016.4 hPa 0 mm - 143 W/m² -
1788645967 21.67° C 55% 1016.5 hPa 0 mm - 417 W/m² -

* Rain latest hour (hover to see other rain measurements)
** Current wind speed in m/s (hover to see current wind gust speed)